Wind_Speed
5 5 6 4 4 3 3 3 2 3 4 4 5 6 8 9 9 10 8 10 11 11 10 9 8 10 8 8 6 7 5 5 7
6 5 6 7 6 8 7 5 4 1 5 5 7 8 9 9 12 11 10 10 11 11 10 10 10 11 10 9 7 7 6 4 5
7 8 7 8 7 7 7 7 6 4 6 9 10 11 13 12 12 13 12 13 13 13 11 11 12 13 12 11 9 8 7 6 5
9 8 9 9 9 7 7 7 8 8 10 13 12 12 15 15 14 14 15 14 15 15 13 13 14 15 14 12 11 10 9 8 7
13 11 10 10 12 10 8 8 7 11 15 16 15 14 15 16 15 17 15 16 16 16 15 15 15 17 17 15 13 12 11 10 9
21 16 14 13 13 13 12 12 9 11 16 18 19 18 17 17 18 19 16 17 16 17 17 16 17 18 19 17 15 15 13 13 11
19 23 23 19 17 16 15 18 12 10 12 18 20 20 20 21 24 22 20 19 18 17 19 19 20 20 20 19 18 17 16 15 13
24 22 23 26 26 20 18 19 18 15 17 16 17 22 24 26 29 25 20 21 15 16 20 23 22 22 23 22 20 21 19 17 16
29 27 28 27 30 29 25 21 23 22 23 25 23 19 19 20 25 25 19 24 19 16 18 24 23 25 24 25 24 23 21 20 19
32 33 32 30 31 32 34 35 29 26 27 26 28 26 26 24 24 24 17 24 22 20 18 20 27 27 26 26 26 25 23 22 21
34 32 35 35 34 34 34 33 32 34 31 31 31 30 29 31 26 30 24 21 25 22 20 23 28 29 28 28 28 27 27 25 24
37 38 37 34 40 45 42 39 37 35 35 34 33 33 35 29 27 31 30 25 25 26 24 25 26 28 29 31 29 29 29 28 26
39 40 39 33 40 46 42 42 44 41 46 44 39 34 36 32 36 36 37 34 28 30 28 28 27 27 27 29 31 30 30 29 28
40 41 43 43 45 42 47 38 45 45 48 53 49 43 40 40 39 35 36 36 31 33 30 30 33 31 27 26 29 31 30 30 29
44 43 43 45 46 48 45 45 43 52 44 35 46 48 50 45 43 36 38 38 34 34 36 33 36 37 35 29 29 30 31 30 29
46 47 47 47 47 49 52 51 47 43 39 42 51 42 51 49 47 42 39 38 35 38 38 41 39 37 38 38 34 30 31 31 30
50 49 49 50 49 49 50 51 54 51 56 48 33 41 42 38 49 40 41 38 42 39 41 44 43 43 37 38 39 33 32 32 33
49 51 53 53 53 52 51 52 52 53 57 38 37 46 44 46 51 49 47 47 49 42 41 44 47 47 38 38 40 39 37 35 32
52 52 52 54 54 53 54 55 54 54 52 49 41 35 41 41 42 54 50 47 41 50 43 43 46 50 47 43 40 41 42 41 36
54 57 57 56 56 56 55 55 57 57 54 53 51 57 44 32 32 35 46 39 35 39 46 42 44 47 51 50 42 43 43 46 41
Wind_Direction
333 353 359 322 274 305 321 355 296 258 227 222 199 221 224 220 224 228 211 208 204 206 211 214 203 199 186 153 159 148 148 133 123
308 320 330 332 295 267 277 266 313 269 241 216 219 224 248 244 233 226 228 222 221 220 218 217 210 209 194 177 178 165 171 167 140
304 308 304 310 320 281 263 264 267 217 214 218 219 228 235 246 248 228 235 233 230 230 226 218 214 215 207 187 190 182 184 186 166
292 292 299 295 301 299 274 260 261 208 220 227 232 241 249 251 257 249 241 240 236 233 229 223 219 219 217 197 196 197 195 195 181
289 287 288 287 281 286 283 278 250 222 219 228 235 247 258 264 262 256 248 244 239 237 234 221 221 222 220 211 201 207 202 202 195
263 281 286 281 280 285 287 281 269 237 227 228 235 242 254 267 260 252 254 257 244 242 240 236 224 222 223 219 211 213 206 210 205
261 259 265 286 286 279 279 278 261 273 256 242 244 250 256 262 265 264 263 265 254 243 248 230 229 223 223 222 215 215 215 215 213
262 262 260 257 266 279 271 271 271 268 272 266 255 249 252 260 261 263 260 259 240 246 242 241 233 231 225 224 222 221 220 221 218
259 262 262 261 261 262 267 267 269 267 271 268 265 261 259 262 268 269 257 253 245 257 245 240 231 231 231 228 227 226 225 226 227
262 260 261 263 261 259 259 258 262 267 261 262 261 262 265 264 272 274 275 260 249 235 254 242 238 234 234 234 231 232 230 230 232
261 267 263 257 259 261 257 257 256 259 260 260 260 253 259 259 262 275 275 276 264 241 233 236 245 244 238 237 235 233 233 233 235
260 261 259 261 259 254 255 257 258 256 253 258 262 254 243 259 260 269 272 274 269 254 238 235 252 254 247 242 238 235 236 235 235
264 266 257 260 255 260 259 258 260 258 259 254 252 255 245 253 253 261 267 270 265 258 252 226 239 255 258 247 240 238 236 237 238
265 262 261 258 258 259 259 265 257 266 261 252 248 247 251 256 253 258 262 265 260 253 257 241 228 235 246 248 240 240 237 237 238
268 265 262 259 257 255 257 263 257 257 262 266 245 246 248 248 255 253 260 262 262 257 248 249 242 234 229 236 240 239 239 239 238
267 267 265 262 260 258 255 254 259 256 260 266 259 248 251 241 247 252 252 261 262 262 252 245 246 241 235 230 234 240 244 243 242
271 269 266 266 263 261 261 259 250 253 258 257 258 253 251 261 240 246 254 253 266 261 257 248 245 247 242 241 237 230 237 250 248
267 268 269 266 264 263 261 261 259 254 252 257 254 257 268 269 263 250 252 268 261 252 256 251 249 250 249 242 239 237 229 237 244
267 262 262 263 262 261 261 259 260 258 253 251 249 253 245 252 255 258 261 259 260 255 250 252 250 253 254 245 243 241 236 230 234
275 270 266 262 260 259 257 256 257 258 256 251 246 245 246 236 237 253 260 256 245 250 247 250 253 252 252 252 244 241 243 237 237
Height
3185 3185 3185 3185 3185 3185 3186 3186 3186 3188 3188 3188 3189 3190 3189 3190 3191 3191 3193 3193 3194 3195 3196 3196 3197 3197 3197 3199 3199 3199 3199 3200 3200
3185 3185 3185 3185 3184 3185 3185 3185 3186 3187 3188 3188 3188 3190 3190 3190 3189 3190 3191 3192 3193 3194 3195 3196 3196 3197 3197 3199 3199 3199 3199 3200 3201
3184 3184 3185 3184 3184 3184 3184 3185 3185 3186 3187 3188 3187 3188 3188 3189 3188 3189 3190 3190 3191 3192 3193 3194 3195 3196 3197 3198 3199 3199 3199 3200 3201
3183 3183 3184 3184 3184 3184 3183 3183 3184 3185 3186 3186 3187 3187 3187 3188 3188 3187 3188 3189 3189 3190 3191 3192 3194 3195 3196 3197 3198 3199 3198 3200 3201
3181 3181 3182 3182 3183 3183 3183 3183 3182 3183 3183 3184 3185 3186 3187 3187 3187 3185 3187 3187 3188 3189 3189 3190 3191 3193 3194 3195 3197 3197 3198 3198 3200
3179 3179 3179 3180 3181 3181 3182 3182 3182 3181 3181 3182 3183 3184 3185 3185 3185 3184 3185 3185 3187 3188 3188 3189 3189 3190 3191 3193 3194 3196 3196 3197 3198
3176 3176 3177 3178 3178 3179 3180 3180 3180 3181 3181 3181 3181 3182 3182 3182 3181 3182 3184 3184 3184 3185 3186 3186 3186 3188 3189 3190 3192 3193 3194 3195 3196
3172 3172 3173 3174 3175 3175 3176 3177 3178 3179 3179 3180 3179 3179 3180 3179 3178 3179 3181 3181 3183 3183 3182 3184 3184 3185 3186 3187 3189 3190 3192 3193 3194
3167 3168 3169 3170 3170 3170 3171 3173 3174 3176 3176 3176 3178 3176 3176 3176 3174 3175 3177 3177 3180 3180 3180 3180 3181 3182 3184 3185 3186 3187 3190 3191 3192
3161 3162 3163 3164 3165 3166 3165 3166 3168 3169 3171 3172 3171 3173 3172 3172 3172 3171 3174 3173 3175 3178 3179 3178 3178 3179 3180 3182 3184 3185 3187 3188 3189
3155 3156 3156 3157 3159 3160 3161 3161 3161 3162 3164 3166 3167 3167 3168 3168 3169 3167 3169 3171 3171 3173 3175 3175 3174 3175 3176 3177 3179 3181 3183 3184 3185
3146 3147 3149 3150 3150 3152 3153 3153 3155 3155 3155 3158 3159 3160 3161 3163 3163 3162 3164 3166 3166 3168 3169 3171 3171 3171 3172 3173 3175 3177 3178 3179 3181
3137 3138 3140 3140 3143 3143 3143 3145 3146 3145 3147 3149 3150 3153 3154 3154 3157 3157 3156 3159 3161 3162 3164 3166 3167 3167 3167 3168 3169 3171 3173 3175 3176
3126 3127 3129 3131 3133 3133 3134 3135 3136 3137 3137 3134 3140 3143 3144 3147 3149 3149 3150 3151 3154 3155 3157 3159 3161 3163 3164 3164 3164 3166 3168 3170 3172
3114 3116 3117 3119 3121 3124 3123 3125 3127 3128 3126 3122 3129 3132 3134 3135 3139 3140 3142 3143 3146 3148 3151 3152 3153 3156 3158 3160 3160 3161 3162 3164 3166
3103 3104 3105 3107 3110 3111 3112 3114 3118 3118 3119 3116 3119 3116 3123 3123 3127 3131 3134 3134 3138 3139 3142 3144 3145 3147 3150 3153 3155 3157 3158 3159 3161
3092 3092 3094 3095 3097 3099 3100 3101 3105 3109 3110 3112 3107 3107 3110 3112 3119 3122 3125 3127 3129 3130 3132 3134 3137 3139 3143 3146 3148 3152 3154 3154 3154
3080 3080 3081 3083 3085 3086 3088 3089 3091 3094 3102 3101 3099 3100 3098 3102 3105 3110 3115 3118 3121 3121 3123 3126 3127 3129 3135 3138 3141 3144 3147 3149 3150
3067 3068 3068 3069 3069 3073 3075 3076 3078 3079 3086 3090 3091 3089 3091 3092 3095 3099 3103 3105 3108 3113 3114 3116 3119 3121 3123 3130 3134 3136 3139 3142 3145
3053 3052 3053 3054 3055 3056 3059 3062 3064 3066 3069 3075 3079 3081 3083 3085 3086 3084 3089 3092 3095 3099 3105 3107 3109 3111 3113 3117 3125 3128 3130 3134 3137